Weather in Buor-Sysy

Russia / Sakha (Yakutia) Republic     66°29′18″N   143°02′57″E
temp.,
°C
wind,
m/s
gust,
m/s
humid.,
%
clouds,
%
prec.,
mm/h
press.,
hPa
HPBL,
m
31 july, sat
sat3123:00+10n225835 0.0 101810
02:00+9ene115662 0.0 101810
05:00+8se115898 0.0 101710
08:00+13se224599 0.0 1017303
11:00+15se2240100 0.0 1015566
14:00+18s123547 0.0 1013735
17:00+21sse1232100 0.0 10101083
20:00+21ne0134100 0.0 1010548
1 august, sun
sun123:00+13ese1158100 0.0 100811
02:00+13n544960 0.0 100935
05:00+9nnw576789 0.0 101299
08:00+12nw68586 0.0 1015835
11:00+14nnw10125332 0.0 10161404
14:00+14n79462 0.0 10191244
17:00+14n67432 0.0 10201277
20:00+13n45460 0.0 10221019
2 august, mon
mon223:00+8nnw33640 0.0 102315
02:00+6nnw22740 0.0 102411
05:00+4n11800 0.0 102410
08:00+9sse11584 0.0 1024367
11:00+13s11471 0.0 1023935
14:00+16wsw11350 0.0 10211214
17:00+18wnw12290 0.0 10191311
20:00+19nw22275 0.0 10191164
3 august, tue
tue323:00+12nnw22430 0.0 101911
02:00+9nnw22500 0.0 101911
05:00+8n22570 0.0 102011
08:00+13nnw11420 0.0 1020252
11:00+16wnw11340 0.0 1019882
14:00+19nnw11290 0.0 10171435
17:00+21nnw33255 0.0 10151570
20:00+20nnw55255 0.0 10151120
4 august, wed
wed423:00+13nw33370 0.0 101514
02:00+10nw33475 0.0 101621
05:00+8nnw33542 0.0 101719
08:00+12nw33430 0.0 1017361
11:00+16nw33340 0.0 1016985
14:00+19nw55270 0.0 10141412
17:00+21nw55225 0.0 10122153
20:00+19nnw662643 0.0 10121078